Hourly Weather Roundup
Issued by NWS Central Illinois

Home | Current Version | Previous Version | Text Only | Print | Product List | Glossary On
Versions: 1 2 3 4 5 6 7 8 9 10 11 12 13 14 15 16 17 18 19 20 21 22 23 24 25 26 27 28 29 30 31 32 33 34 35 36 37 38 39 40 41 42 43 44 45 46 47 48 49 50
000
NZUS43 KILX 010510
HWRILX

AREA WEATHER ROUNDUP
NATIONAL WEATHER SERVICE, LINCOLN IL
1100 PM CST SAT JAN 31 2015


CITY           SKY/WX    TMP DP  RH WIND       PRES   REMARKS
BLOOMINGTON    LGT SNOW  34  34 100 S10       30.13F FOG     WCI  26
CHAMPAIGN      LGT SNOW  33  31  92 SE6       30.16S FOG     WCI  28
DECATUR        MIX PCPN  34  32  92 SE6       30.15F FOG     WCI  29
FLORA          CLOUDY    36  29  74 E5        30.15F WCI  32
GALESBURG      LGT SNOW  32  32 100 SE6       30.08F WCI  27
JACKSONVILLE   LGT RAIN  36  34  92 E7        30.08F WCI  31
LACON          LGT SNOW  32  32  98 S5        30.12F WCI  28
LAWRENCEVILLE  CLOUDY    37  28  70 SE9       30.19F WCI  30
LITCHFIELD     CLOUDY    35  29  79 E9        30.07F WCI  27
$$


CITY           SKY/WX    TMP DP  RH WIND       PRES   REMARKS
LINCOLN        LGT RAIN  35  33  94 S7        30.14F WCI  29
MACOMB         LGT SNOW  32  32 100 SE10      30.10F WCI  24
MATTOON        CLOUDY    33  30  88 SE6       30.15F WCI  28
MT CARMEL AP   CLOUDY    37  30  75 E7        30.16S WCI  32
OLNEY-NOBLE AP CLOUDY    36  28  75 CALM      30.16F
PARIS          CLOUDY    33  33  99 CALM      30.18F FOG
PEORIA         LGT SNOW  34  32  92 S7        30.12F FOG     WCI  28
PONTIAC        LGT SNOW  33  33 100 SE5       30.15F WCI  29
RANTOUL        LGT SNOW  34  33  97 S6        30.16S WCI  29
ROBINSON       CLOUDY    34  31  91 E6        30.18F WCI  29
SPRINGFIELD    LGT RAIN  35  33  92 SE8       30.11F FOG     WCI  29
TAYLORVILLE    CLOUDY    34  32  93 E6        30.11F WCI  29
$$

...REGIONAL REPORTS...


CITY           SKY/WX    TMP DP  RH WIND       PRES   REMARKS
CHICAGO O`HARE LGT SNOW  31  29  92 E8        30.15S VSB 3/4 WCI  23
KANKAKEE       LGT SNOW  32  32  99 S7        30.17S WCI  26
MOLINE         LGT SNOW  33  31  92 SE5       30.08F FOG     WCI  29
MOUNT VERNON   CLOUDY    37  25  60 E5        30.13F WCI  34
PITTSFIELD     DRIZZLE   35  34  94 E6        30.04F WCI  30
QUINCY         LGT SNOW  33  31  92 SE10      30.03F FOG     WCI  25
ROCKFORD       LGT SNOW  31  28  89 E9        30.14F VSB 1   WCI  23
$$


CITY           SKY/WX    TMP DP  RH WIND       PRES   REMARKS
BURLINGTON     LGT SNOW  33  32  96 SE9       30.05F FOG     WCI  25
CEDAR RAPIDS   LGT SNOW  32  32 100 E8        30.01F VSB 3/4 WCI  25
DES MOINES     LGT SNOW  34  31  88 E8        29.95F VSB 3/4 WCI  27
KIRKSVILLE     SNOW      33  33 100 SE14      29.96F VSB 1/2 WCI  23
OTTUMWA        LGT SNOW  33  33 100 SE14      29.97F FOG     WCI  23
ST LOUIS       CLOUDY    41  25  53 SE13      30.06F WCI  34
$$


CITY           SKY/WX    TMP DP  RH WIND       PRES   REMARKS
TERRE HAUTE    CLOUDY    33  31  92 E5        30.18F FOG     WCI  29
EVANSVILLE     CLOUDY    40  24  53 E9        30.14F WCI  34
INDIANAPOLIS   LGT SNOW  30  30 100 S6        30.20F FOG     WCI  24
LAFAYETTE      MIX PCPN  32  31  96 S5        30.18F FOG     WCI  27
MADISON        LGT SNOW  26  24  92 E10       30.17R VSB 3/4 WCI  16
MILWAUKEE      LGT SNOW  30  26  85 NE12      30.18S FOG     WCI  20
$$




USA.gov is the U.S. government's official web portal to all federal, state and local government web resources and services.